Location: Luxembourg
(49.6117°N, 6.1300°E)
Time: 01:22:56
(UTC+01:00)

N. Korean satellite - Pass Details

Date: 09 December 2021
Orbit: 446 x 492 km, 97.3° (Epoch: 16 January)

Event Time Altitude Azimuth Distance (km) Brightness Sun altitude
Rises 06:27:36 0° 6° (N) 2,464 10.1 -17.2°
Reaches altitude 10° 06:29:43 10° 359° (N) 1,585 9.0 -16.9°
Maximum altitude 06:32:55 40° 289° (WNW) 675 6.7 -16.4°
Drops below altitude 10° 06:36:05 10° 218° (SW) 1,574 8.9 -15.9°
Sets 06:38:10 0° 211° (SSW) 2,444 10.0 -15.6°
